This is the latest recevied weather packets stored in our database for station/object KO4LCK. If no packets are shown the sender has not sent any weather packets the latest 10 day(s).
| Time | Temp. | Humidity | Pressure | Rain* | Wind** | Luminosity | Snow |
|---|---|---|---|---|---|---|---|
| 1777648447 | 16.67° C | 64% | 1015.9 hPa | 0 mm | - | 206 W/m² | - |
| 1777648143 | 16.67° C | 66% | 1015.7 hPa | 0 mm | - | 254 W/m² | - |
| 1777647838 | 16.11° C | 66% | 1015.8 hPa | 0 mm | - | 297 W/m² | - |
| 1777647535 | 16.11° C | 65% | 1015.9 hPa | 0 mm | - | 252 W/m² | - |
| 1777647232 | 16.11° C | 67% | 1016.1 hPa | 0 mm | - | 238 W/m² | - |
| 1777646930 | 16.11° C | 65% | 1015.8 hPa | 0 mm | - | 251 W/m² | - |
| 1777646625 | 16.11° C | 67% | 1015.8 hPa | 0 mm | - | 260 W/m² | - |
| 1777646321 | 16.11° C | 67% | 1016 hPa | 0 mm | - | 212 W/m² | - |
| 1777646018 | 15.56° C | 67% | 1016 hPa | 0 mm | - | 234 W/m² | - |
| 1777645715 | 15.56° C | 65% | 1015.7 hPa | 0 mm | - | 224 W/m² | - |
| 1777645412 | 15.56° C | 64% | 1015.8 hPa | 0 mm | - | 206 W/m² | - |
| 1777645107 | 15.56° C | 65% | 1016.1 hPa | 0 mm | - | 339 W/m² | - |
| 1777644804 | 15.56° C | 67% | 1016.1 hPa | 0 mm | - | 352 W/m² | - |
| 1777644502 | 15° C | 64% | 1015.8 hPa | 0 mm | - | 432 W/m² | - |
| 1777644198 | 15° C | 66% | 1015.8 hPa | 0 mm | - | 346 W/m² | - |
| 1777643894 | 15° C | 70% | 1015.7 hPa | 0 mm | - | 356 W/m² | - |
| 1777643593 | 15° C | 69% | 1015.4 hPa | 0 mm | - | 261 W/m² | - |
| 1777643289 | 15° C | 66% | 1015.5 hPa | 0 mm | - | 286 W/m² | - |
| 1777642985 | 15° C | 70% | 1015.9 hPa | 0 mm | - | 261 W/m² | - |
| 1777642681 | 14.44° C | 70% | 1015.6 hPa | 0 mm | - | 309 W/m² | - |
| 1777642379 | 14.44° C | 73% | 1015.6 hPa | 0 mm | - | 276 W/m² | - |
| 1777642075 | 13.89° C | 76% | 1015.5 hPa | 0 mm | - | 330 W/m² | - |
| 1777641772 | 13.33° C | 79% | 1015.5 hPa | 0 mm | - | 317 W/m² | - |
| 1777641472 | 12.78° C | 81% | 1015.4 hPa | 0 mm | - | 282 W/m² | - |
| 1777641167 | 12.22° C | 79% | 1015.4 hPa | 0 mm | - | 93 W/m² | - |
* Rain latest hour (hover to see other rain measurements)
** Current wind speed in m/s (hover to see current wind gust speed)